Dewpoint
58 57 58 58 58 57 58 58 58 59 58 58 58 58 58 59 59 60 60 60 60 60 60 59 60 60 59 60 60 59 47 22 17 17 16 19 38 54 55 56 57 60 57 37 29 26 17 20 19 20 19 21 25 24 25 27 35 29 25 23 20 25 16 12 16 18 17 15 15 17 19 19 17 18 18 18 16 15 15 14 14 13 13 13 12 12 12 13
57 57 58 58 58 58 59 59 59 58 59 59 59 58 59 59 59 59 59 60 60 60 60 60 59 60 60 60 59 55 31 19 14 14 17 33 53 57 57 57 58 59 50 25 29 20 14 15 23 16 17 23 21 20 23 25 26 26 22 23 19 19 11 11 8 18 14 14 16 16 15 16 15 17 17 16 13 15 16 14 14 14 13 13 13 13 13 12
57 58 59 59 59 59 59 59 59 59 59 59 59 59 59 59 59 59 60 60 60 60 61 60 60 60 60 60 59 56 41 18 15 14 15 48 55 58 57 56 57 54 33 24 27 24 18 15 23 11 11 14 12 19 21 19 24 26 20 15 13 21 12 14 15 16 16 16 15 14 13 11 10 16 15 13 11 11 13 14 14 13 11 11 12 13 13 13
58 58 59 58 58 58 58 59 59 59 59 59 59 59 59 59 59 60 59 59 60 60 60 60 60 60 60 59 60 46 26 20 15 17 17 50 56 57 57 54 57 52 35 34 32 32 22 14 13 11 14 15 16 17 18 18 21 19 16 14 14 13 11 13 17 17 17 16 15 14 13 11 9 9 14 14 17 13 9 9 13 11 11 11 12 12 12 12
57 58 58 57 57 57 58 58 58 58 59 59 59 59 59 60 59 59 60 60 58 59 60 60 60 60 60 59 52 29 20 13 17 20 20 53 56 55 54 55 56 40 32 34 23 23 21 17 13 16 19 16 16 16 12 13 13 13 12 11 12 12 12 15 16 17 15 15 14 14 13 11 11 8 8 12 19 15 9 11 13 12 11 12 12 12 12 12
57 58 57 57 57 58 58 58 58 59 59 59 59 59 59 59 59 59 59 59 58 59 59 59 61 59 60 55 35 29 17 8 20 17 49 50 51 54 51 52 53 37 24 17 18 17 12 11 8 12 12 7 9 9 11 12 14 11 14 13 15 12 13 14 17 17 16 15 13 12 12 10 8 8 8 8 9 9 12 12 14 13 13 13 13 12 12 12
57 57 57 57 57 57 57 58 58 58 59 59 59 59 59 59 59 59 59 59 58 58 58 59 60 60 59 49 33 20 16 18 17 21 46 49 49 48 47 48 46 31 23 16 15 15 13 10 10 18 15 16 15 13 13 14 14 13 13 15 17 17 16 17 15 14 13 12 11 11 12 10 11 9 8 7 8 11 13 14 15 15 15 14 12 12 12 12
57 57 57 57 57 57 57 58 58 58 59 58 58 59 59 58 59 59 59 59 59 59 59 60 60 60 53 35 27 19 17 18 17 23 41 46 31 29 37 27 23 23 18 17 15 14 15 9 7 18 15 12 15 14 19 12 16 16 15 17 17 15 14 13 12 11 11 10 10 9 8 8 9 8 8 7 8 9 10 10 11 12 12 12 12 13 13 13
57 57 57 56 56 57 57 58 58 58 58 58 58 58 59 59 58 59 59 58 59 59 59 59 60 59 49 29 20 17 14 16 19 21 24 21 22 23 22 18 20 19 19 22 20 14 14 14 13 10 10 17 20 19 24 16 14 17 15 16 15 14 13 13 12 12 11 11 11 10 8 8 8 9 7 8 9 10 11 10 11 11 11 11 11 14 12 12
57 56 57 57 57 57 57 58 58 58 58 58 58 58 58 59 59 58 59 59 60 60 59 60 60 51 32 23 24 14 17 18 20 22 21 21 23 22 21 21 19 20 19 19 22 18 15 13 13 14 17 20 19 17 24 22 15 17 16 15 15 15 15 17 16 17 17 16 15 11 10 12 14 13 10 9 9 13 10 10 11 10 10 10 11 11 12 12
57 57 57 57 57 57 58 58 57 57 57 58 58 58 58 58 58 58 58 59 59 60 59 59 56 47 22 21 18 15 19 19 23 22 20 23 23 21 20 21 20 17 18 18 20 22 19 16 19 22 26 21 19 16 16 19 17 15 16 17 17 17 17 17 17 16 17 15 14 13 13 14 13 11 11 8 10 12 10 10 11 10 10 10 11 11 13 12
57 57 56 57 57 57 58 58 57 57 57 58 58 58 58 57 58 58 58 58 59 59 59 57 54 23 18 17 16 16 21 20 24 21 21 22 22 23 23 24 20 18 19 18 19 20 23 23 24 25 17 20 15 15 15 15 14 15 17 14 16 16 15 16 16 16 16 15 15 16 15 14 14 10 9 9 11 11 11 10 11 10 10 10 10 10 12 13
56 56 57 57 57 58 57 57 57 57 57 57 57 58 57 58 58 58 59 59 58 59 59 58 46 33 29 17 17 18 21 26 22 22 22 23 21 23 23 21 19 19 20 20 22 23 31 27 23 22 28 21 19 21 17 16 15 17 15 15 16 18 17 17 18 17 15 15 17 17 11 14 15 11 10 12 10 11 10 10 10 10 10 10 10 10 10 11
56 57 57 57 57 57 57 57 57 57 57 56 57 57 58 58 58 59 59 59 59 60 57 49 27 27 27 16 18 20 21 27 21 21 21 23 20 21 22 21 19 21 22 22 25 29 26 25 23 24 29 21 18 19 14 20 21 14 16 22 15 14 13 18 21 18 15 18 18 18 11 14 15 12 10 11 10 10 10 10 10 10 10 10 10 10 10 10
55 56 57 57 56 57 58 58 58 58 57 55 55 57 57 57 58 59 59 57 59 58 57 51 25 25 21 15 17 20 45 22 20 20 22 22 22 20 20 22 19 19 22 22 23 25 24 24 21 20 21 26 19 20 19 20 21 22 15 12 18 17 15 16 24 18 14 17 19 18 12 14 15 15 10 10 11 11 10 10 10 10 10 10 9 9 9 9
55 56 56 56 56 56 57 57 57 57 56 54 55 56 57 57 57 58 56 56 54 58 36 26 28 19 19 16 17 33 20 19 19 20 22 24 23 21 23 22 21 19 20 19 24 25 23 22 20 21 18 20 18 16 18 16 15 20 18 9 12 16 16 16 17 19 20 18 18 15 14 15 15 17 11 10 10 11 10 11 11 11 11 11 10 9 9 10
55 55 56 56 55 57 57 57 56 56 56 53 53 55 56 57 57 57 54 47 41 45 23 23 26 32 17 16 19 18 18 19 21 21 22 25 23 23 22 20 20 19 22 19 20 20 21 20 23 19 23 21 22 20 12 12 12 13 20 15 16 14 15 14 17 18 19 17 15 17 16 16 16 17 10 10 10 11 11 11 11 11 12 11 10 10 10 10
55 55 56 55 55 56 56 56 56 56 56 55 46 45 38 47 47 44 40 39 40 33 33 31 29 21 18 18 17 18 19 19 20 21 22 24 23 22 22 20 23 17 20 17 16 17 20 20 21 15 19 20 19 19 18 11 13 13 15 15 16 18 18 16 15 18 19 21 17 17 16 16 15 14 12 11 11 11 11 11 11 12 12 12 12 12 11 10
55 55 55 54 55 55 56 56 56 57 56 53 56 55 51 48 36 24 27 26 31 24 20 22 22 16 14 17 18 19 21 21 21 22 22 23 26 21 24 23 21 16 17 15 16 18 20 20 20 17 15 17 18 19 18 16 19 17 17 18 17 16 16 15 17 19 19 18 17 17 15 15 14 13 13 12 12 11 11 12 12 12 13 13 13 13 12 11
55 55 54 55 55 56 55 56 56 56 54 40 38 35 35 27 23 24 28 26 22 22 22 22 23 21 20 19 19 21 22 21 19 19 22 26 23 18 17 21 21 19 23 15 19 17 23 17 17 12 17 18 18 19 19 18 21 20 20 18 17 17 16 16 18 19 22 19 17 17 16 15 15 14 13 13 13 12 12 12 12 12 13 13 14 14 13 12
55 55 55 54 55 55 56 56 55 55 52 40 33 32 22 25 19 16 22 24 22 27 25 23 23 19 19 19 20 21 18 18 19 19 21 27 20 14 15 20 20 16 18 21 17 21 19 14 15 19 19 19 18 19 19 16 18 19 17 16 16 16 14 17 17 20 21 16 15 17 15 15 15 15 15 14 13 12 12 12 12 12 13 13 14 14 14 13
55 55 55 55 55 56 56 56 55 53 51 40 33 25 33 29 25 23 25 18 25 28 24 23 23 21 22 21 21 21 20 17 16 18 21 23 18 13 17 17 18 16 19 20 16 13 13 14 16 16 18 18 18 17 18 18 17 18 17 16 15 16 19 20 21 19 19 19 15 16 15 15 16 16 16 15 14 13 13 12 12 12 13 13 14 14 15 15
55 55 55 55 56 56 55 55 54 51 40 31 34 37 36 40 43 41 28 23 22 26 24 24 20 21 21 22 23 21 17 18 18 18 20 25 19 18 20 15 16 17 15 16 10 13 7 13 13 18 18 16 15 17 15 15 16 11 11 12 10 16 13 9 16 19 18 16 16 17 15 16 17 17 17 17 15 14 14 13 13 14 13 13 14 14 15 15
55 55 54 55 56 54 56 53 51 42 39 36 38 37 40 41 41 33 27 21 19 21 26 23 22 22 21 20 23 20 18 19 18 17 22 25 23 22 19 16 13 15 12 14 12 10 8 11 16 15 17 15 14 15 14 12 8 15 14 13 14 16 15 11 14 18 19 19 19 16 14 11 15 16 16 17 18 16 15 15 15 14 14 14 15 15 15 15
55 54 54 55 56 55 51 48 42 37 38 36 37 39 40 41 38 31 23 15 20 18 26 22 24 21 22 24 25 21 19 21 20 19 23 25 26 22 18 20 18 12 15 17 12 10 9 11 19 11 12 14 15 12 16 14 8 9 8 11 12 15 17 18 18 17 14 11 18 9 2 -2 5 16 16 16 17 17 17 15 15 15 15 15 15 15 15 17
54 54 54 55 55 49 51 35 33 39 36 32 37 41 41 40 42 31 21 17 5 15 24 16 23 18 22 17 24 24 21 20 21 19 32 24 27 23 24 20 18 11 15 16 13 13 11 14 11 10 9 9 11 10 12 16 9 2 -4 13 13 16 17 17 17 13 4 5 11 13 -2 -4 2 5 13 17 17 17 17 17 16 16 16 16 15 15 15 16
54 53 54 54 55 51 30 29 34 33 28 28 38 41 41 42 41 36 22 11 3 12 15 22 20 17 24 22 24 19 9 14 19 20 21 24 23 25 21 20 23 23 20 19 15 5 17 14 9 7 6 7 3 4 8 9 6 -8 1 15 16 17 16 17 16 11 10 18 18 17 4 -2 0 5 12 17 16 16 17 17 17 17 17 17 16 16 16 16
53 53 54 54 52 48 31 38 33 29 29 37 41 39 42 40 40 29 18 -6 -12 22 17 22 19 25 24 25 23 12 13 19 14 15 24 24 22 21 21 19 21 20 20 15 -5 3 15 16 12 7 6 5 5 6 7 8 1 -4 11 14 12 13 16 18 16 15 16 12 9 13 17 1 -2 5 15 16 12 12 14 16 17 18 18 17 17 17 17 17
54 54 54 53 51 48 42 39 34 33 40 41 40 41 38 33 26 19 13 -1 -2 18 24 21 24 19 24 24 22 22 19 21 15 19 24 22 21 19 19 20 19 18 18 16 8 5 16 18 18 9 7 5 7 7 10 13 -0 9 17 18 17 15 14 17 14 12 8 6 0 4 10 -1 2 2 -2 14 14 12 12 13 15 17 18 18 18 18 18 17
54 53 53 52 44 41 40 37 39 41 42 41 43 35 32 29 21 14 0 -12 18 9 23 22 21 18 24 20 20 22 16 18 23 22 22 17 18 22 24 24 20 17 14 17 17 14 17 27 26 16 11 11 12 13 14 12 10 16 14 6 -2 -8 4 4 4 4 4 -1 5 5 11 -2 -5 -3 -7 3 3 11 10 11 14 17 18 18 19 19 19 18
55 52 51 50 39 39 31 27 32 40 41 44 37 29 24 18 14 3 -11 -5 20 19 23 22 21 25 22 19 17 22 22 21 19 22 18 22 20 22 21 18 21 15 13 13 8 14 13 15 17 18 24 19 13 8 16 16 12 10 6 -8 -21 -18 -11 -6 1 -1 -1 -6 -5 -5 11 -5 -6 -3 -7 4 9 12 12 7 6 10 14 18 19 19 19 19
53 50 50 45 42 40 26 28 37 41 42 37 31 24 17 6 16 -5 -7 19 10 15 18 20 22 23 22 21 20 21 19 21 20 21 18 19 18 18 19 12 15 -6 -8 -0 -3 8 4 9 12 13 26 13 8 -5 8 6 6 -0 -7 -6 -17 -22 -19 -31 -14 -21 -15 -13 -6 -2 -5 -5 -1 -2 -7 -7 1 8 14 11 8 9 10 15 18 19 20 20
51 51 49 47 44 39 40 42 41 42 38 35 28 22 11 7 -13 -4 3 10 0 20 18 22 21 22 21 18 18 21 22 17 20 18 21 19 18 17 20 20 19 9 -7 9 7 5 -2 6 2 10 5 17 -4 -11 -8 -4 -6 -2 -11 -8 -15 -29 -29 -34 -19 -23 -21 -13 -10 -8 -5 -10 -8 -10 -5 -4 -3 0 7 15 15 14 14 15 18 19 20 20
50 47 43 44 44 42 43 41 41 42 31 35 20 13 11 -8 -11 26 9 13 16 22 24 22 23 21 19 15 17 20 14 18 19 18 18 13 16 12 16 18 20 16 13 12 2 1 -30 -12 -16 5 1 11 9 1 -3 -11 3 2 -2 -8 -19 -15 -28 -32 -30 -32 -22 -12 -16 -6 -17 -8 -17 4 6 2 1 14 17 16 17 18 18 19 19 19 19 19
50 44 41 38 40 41 43 42 39 36 30 22 17 15 -2 -10 -4 5 5 14 18 21 20 22 19 15 12 16 16 20 17 12 18 18 17 10 6 15 14 14 19 16 13 1 -1 -0 -10 -11 -14 2 9 14 12 16 2 -8 -12 -1 5 -6 -15 -21 -4 -24 -15 -21 -22 -9 -6 -9 -8 -2 -3 0 2 10 15 14 18 18 19 19 19 19 19 19 20 20
48 39 37 35 38 37 40 42 35 30 26 21 17 11 -7 2 -2 9 12 21 22 17 20 19 15 10 10 13 11 14 17 11 14 16 14 14 14 12 15 18 18 19 7 -4 -2 -4 -0 -8 8 17 17 13 13 17 11 -9 -20 -17 -18 -23 -23 -5 -1 -10 -5 -6 -8 -10 -6 -15 -4 -3 -3 -12 -7 7 12 7 8 12 16 17 18 18 19 19 19 20
37 37 30 32 32 33 39 36 35 30 24 17 16 3 10 15 16 15 29 20 17 20 12 6 7 2 5 3 10 12 15 14 11 12 10 15 -0 13 17 16 19 19 13 7 1 5 -2 -8 1 13 13 18 18 15 13 11 -2 -6 -16 -12 7 8 4 -2 -11 -14 -22 -15 -11 -11 -8 -5 -13 -11 1 -3 -2 2 5 11 13 15 16 16 18 19 20 20
36 36 32 29 30 36 38 34 30 28 28 23 18 25 19 20 24 26 25 25 26 20 14 9 8 15 5 8 3 10 17 3 10 13 9 11 -0 18 16 14 15 19 21 22 4 3 6 -8 0 14 10 11 15 16 12 9 9 -8 -10 -6 -9 -16 -15 -6 -10 -16 -19 -21 -15 -11 -11 -7 -6 -3 -5 -10 -6 -5 -3 1 6 10 13 16 17 18 19 20
32 30 22 27 31 38 39 32 28 23 19 20 17 22 21 22 24 25 26 25 24 20 13 14 9 14 9 7 8 14 14 4 10 13 -0 7 -1 12 9 15 14 21 22 16 7 14 6 -11 -6 1 12 12 11 6 -0 5 6 8 5 1 4 -11 -12 -13 -6 -9 -14 -16 -19 -8 -16 -13 -5 -1 -0 -8 -5 -4 3 4 6 9 11 14 16 18 18 19
27 21 17 25 32 36 35 32 27 23 21 15 11 11 21 21 23 26 27 23 22 15 14 16 18 13 18 11 15 10 16 14 13 12 5 7 13 15 13 19 14 20 19 19 11 15 7 -4 -19 -11 -5 4 3 10 3 3 -0 1 2 -1 -2 -7 -2 -2 -11 -10 -10 -21 -21 -18 -11 -9 -8 -3 -2 -2 -2 -0 4 8 9 11 12 13 14 16 16 17
29 22 18 27 31 34 30 27 23 21 20 21 22 21 24 18 23 23 26 28 28 27 15 18 17 8 13 13 11 17 15 17 16 12 14 13 12 -5 9 19 19 15 19 14 8 9 2 -4 -10 -3 -9 4 2 6 9 5 5 4 6 4 5 -7 -8 -12 -4 -11 -14 -14 -11 -22 -12 -9 -9 -1 0 -2 3 6 8 8 10 9 10 11 12 14 15 16
22 10 19 29 31 32 28 22 19 22 20 16 16 22 21 34 22 23 23 25 22 21 22 21 21 18 18 16 13 17 16 13 16 12 14 7 12 1 9 18 19 19 13 10 5 11 4 -2 -6 -9 -8 -13 -9 1 15 8 6 7 4 4 4 -2 -4 -10 -12 -6 -11 -7 -15 -13 -16 -8 0 0 2 3 5 6 7 8 8 9 9 9 11 13 14 16
22 17 23 29 30 28 20 14 22 21 18 24 26 24 24 23 21 21 22 23 21 21 21 20 20 12 13 19 19 18 15 9 16 9 13 16 14 14 13 20 18 18 14 11 10 13 21 -4 -7 -6 -8 -17 -8 -0 13 11 12 9 9 3 -0 -5 2 2 -3 -8 -7 -12 -11 -11 -11 -6 -4 1 1 1 3 8 6 6 8 8 9 10 12 13 14 15
21 17 19 27 31 29 21 8 12 15 18 21 22 22 23 25 22 21 21 21 19 20 20 21 19 17 15 20 18 15 17 -0 9 16 13 17 14 17 17 20 18 17 7 2 4 12 -0 2 -8 -18 -13 -13 -9 -2 1 3 11 10 4 7 4 -1 -6 -10 -9 -12 -6 -4 -2 -10 -10 -11 -5 9 10 11 9 9 10 11 11 10 11 12 13 14 15 16
18 18 27 27 26 24 10 18 19 17 21 17 17 15 19 19 24 24 20 20 23 21 15 15 18 20 19 21 20 20 20 2 7 14 14 16 16 22 21 19 18 15 16 18 22 6 -5 -2 -13 -23 -28 -29 -26 -26 -14 -11 -1 7 9 9 6 4 -1 -1 -3 -7 -5 -2 -3 -11 -5 -5 -4 -0 1 2 7 8 10 12 14 14 13 13 14 14 15 16
15 -2 11 13 19 24 24 23 22 20 18 12 10 16 19 19 23 22 22 22 23 22 18 18 22 21 20 20 18 18 17 18 12 7 11 10 12 16 20 17 18 17 25 28 24 8 -5 4 -8 -5 -9 -15 -10 -9 -11 4 -8 -9 -6 4 5 3 2 -3 -3 -6 -3 -4 -3 -1 -1 -5 -4 -1 -1 -0 1 0 0 0 2 3 8 13 15 15 15 15
18 9 13 0 15 17 20 22 20 21 16 19 9 13 9 19 18 16 21 14 20 21 22 19 19 18 14 19 17 18 19 18 16 12 10 8 9 16 18 20 20 21 28 26 18 3 -4 -2 4 -0 -3 -6 -12 -14 -15 1 -15 -16 -13 -6 2 4 4 4 4 1 1 -4 -5 -0 -1 1 -1 -1 -1 -1 -1 -1 -1 0 0 1 3 4 6 10 19 16
8 16 20 19 17 5 13 10 22 21 22 21 12 17 14 18 17 10 22 21 22 22 21 21 19 19 17 12 14 6 12 16 15 7 10 10 13 13 16 21 21 25 26 16 12 7 -3 -6 -5 -1 0 3 3 1 1 1 -0 -3 -3 -4 -2 3 3 4 5 5 -0 -2 -5 -6 -6 -3 -3 -4 -3 -1 -0 -1 -0 1 1 3 4 6 8 10 11 12
24 23 24 23 14 16 18 17 23 23 23 22 24 19 16 17 14 16 19 21 22 20 20 12 13 19 20 18 13 7 12 -1 -2 5 8 6 8 7 8 9 17 22 20 15 15 -4 -4 -3 -7 -5 -2 1 1 -0 -0 0 1 4 6 6 4 2 3 5 4 4 4 4 2 1 1 1 1 1 2 2 3 3 3 5 6 6 7 8 9 10 11 12
18 15 13 23 24 22 22 21 21 19 16 18 10 14 16 16 15 17 21 21 16 20 22 15 15 19 20 20 17 7 13 5 1 2 6 9 7 9 5 10 10 20 15 14 11 9 2 2 8 0 -2 3 1 2 -1 1 1 -0 0 1 1 4 5 4 5 4 5 4 4 4 4 5 6 6 5 5 5 6 6 7 7 7 8 10 10 11 12 12
24 24 24 20 20 17 21 20 17 19 12 15 12 12 20 16 14 18 19 22 16 17 21 18 19 22 21 21 19 16 16 14 8 10 12 14 10 14 11 8 17 13 13 9 5 3 -0 1 -7 -8 -5 3 -2 1 3 4 3 3 3 3 3 2 1 3 4 5 4 4 4 1 2 4 5 4 5 6 6 6 5 5 5 5 7 9 10 10 10 10
26 25 25 21 14 23 19 19 18 8 5 14 15 14 18 17 17 18 10 17 23 21 23 21 22 22 20 19 20 21 21 20 19 20 18 17 19 18 15 14 15 16 12 11 5 1 -1 -4 -4 -9 -1 3 1 -1 3 4 4 4 5 5 4 3 2 2 3 4 4 3 -3 -0 1 0 0 4 1 -1 -0 1 3 3 4 5 7 8 8 8 9 9